When you browse on this site, cookies collect data to enhance your experience and personalize the content and advertising you see.
Visit our Privacy Policy to learn more. By continuing to use the site, you agree to this use of cookies and data.
  • In Netherlands
  • List of Countries
  • For 7 days
  • Water Temperature
  • Satellite Maps
  • Weather Map
  • Weather Widgets
  • user-avatar
    Login

    Hourly Weather Kokoszczyn

    Today, 10 December, Monday

    Time Temperature Precipitation Wind Pressure Humidity
    00:00 +4°C° 0.5 mm 7 mps 740 mmHg 80%
    01:00 +4°C° 0.5 mm 8 mps 740 mmHg 79%
    02:00 +4°C° 0.2 mm 8 mps 741 mmHg 77%
    03:00 +3°C° 0.2 mm 7 mps 741 mmHg 76%
    04:00 +3°C° 0.2 mm 7 mps 742 mmHg 74%
    05:00 +3°C° 0 mm 7 mps 742 mmHg 74%
    06:00 +2°C° 0 mm 7 mps 743 mmHg 75%
    07:00 +2°C° 0 mm 6 mps 743 mmHg 75%
    08:00 +2°C° 0 mm 7 mps 744 mmHg 74%
    09:00 +2°C° 0 mm 7 mps 745 mmHg 73%
    10:00 +1°C° 0 mm 8 mps 745 mmHg 71%
    11:00 +2°C° 0.1 mm 8 mps 745 mmHg 69%
    12:00 +2°C° 0.1 mm 8 mps 746 mmHg 66%
    13:00 +2°C° 0.1 mm 8 mps 746 mmHg 64%
    14:00 +3°C° 0 mm 7 mps 746 mmHg 65%
    15:00 +2°C° 0 mm 6 mps 746 mmHg 67%
    16:00 +2°C° 0 mm 5 mps 746 mmHg 69%
    17:00 +1°C° 0 mm 5 mps 746 mmHg 70%
    18:00 +1°C° 0 mm 6 mps 746 mmHg 72%
    19:00 +1°C° 0 mm 6 mps 746 mmHg 73%
    20:00 +1°C° 0 mm 5 mps 746 mmHg 75%
    21:00 0°C° 0 mm 5 mps 746 mmHg 77%
    22:00 0°C° 0 mm 5 mps 746 mmHg 79%
    23:00 0°C° 0.1 mm 5 mps 746 mmHg 80%

    Tomorrow, 11 December, Tuesday

    Time Temperature Precipitation Wind Pressure Humidity
    00:00 +1°C° 0.1 mm 5 mps 746 mmHg 80%
    01:00 +1°C° 0.1 mm 5 mps 746 mmHg 80%
    02:00 +1°C° 0.3 mm 5 mps 746 mmHg 80%
    03:00 +1°C° 0.3 mm 5 mps 746 mmHg 80%
    04:00 +1°C° 0.3 mm 5 mps 745 mmHg 80%
    05:00 +1°C° 0.3 mm 5 mps 746 mmHg 81%
    06:00 +1°C° 0.3 mm 5 mps 746 mmHg 83%
    07:00 +1°C° 0.3 mm 4 mps 746 mmHg 84%
    08:00 +1°C° 0.1 mm 4 mps 746 mmHg 85%
    09:00 +1°C° 0.1 mm 4 mps 746 mmHg 86%
    10:00 +1°C° 0.1 mm 4 mps 747 mmHg 87%
    11:00 +1°C° 0.1 mm 4 mps 747 mmHg 86%
    12:00 +3°C° 0.1 mm 4 mps 747 mmHg 85%
    13:00 +3°C° 0.1 mm 4 mps 748 mmHg 84%
    14:00 +3°C° 0.2 mm 4 mps 748 mmHg 85%
    15:00 +2°C° 0.2 mm 3 mps 749 mmHg 87%
    16:00 +2°C° 0.2 mm 3 mps 750 mmHg 88%
    17:00 +1°C° 0 mm 4 mps 750 mmHg 87%
    18:00 +1°C° 0 mm 4 mps 751 mmHg 87%
    19:00 0°C° 0 mm 4 mps 751 mmHg 86%
    20:00 0°C° 0 mm 4 mps 752 mmHg 86%
    21:00 +1°C° 0 mm 3 mps 752 mmHg 86%
    22:00 0°C° 0 mm 3 mps 753 mmHg 86%
    23:00 0°C° 0 mm 3 mps 753 mmHg 88%

    Day after tomorrow, 12 December, Wednesday

    Time Temperature Precipitation Wind Pressure Humidity
    00:00 -1°C° 0 mm 3 mps 753 mmHg 90%
    01:00 -1°C° 0 mm 3 mps 754 mmHg 92%
    02:00 -1°C° 0 mm 2 mps 754 mmHg 93%
    03:00 -1°C° 0 mm 2 mps 754 mmHg 93%
    04:00 -1°C° 0 mm 2 mps 755 mmHg 93%
    05:00 -2°C° 0 mm 2 mps 755 mmHg 93%
    06:00 -2°C° 0 mm 2 mps 755 mmHg 93%
    07:00 -2°C° 0 mm 2 mps 756 mmHg 93%
    08:00 +1°C° 0 mm 1 mps 756 mmHg 91%
    09:00 +2°C° 0 mm 1 mps 756 mmHg 89%
    10:00 +2°C° 0 mm 1 mps 756 mmHg 87%
    11:00 +2°C° 0.2 mm 1 mps 756 mmHg 86%
    12:00 +3°C° 0.2 mm 1 mps 756 mmHg 85%
    13:00 +3°C° 0.2 mm 1 mps 756 mmHg 85%
    14:00 +3°C° 0.2 mm 1 mps 756 mmHg 87%
    15:00 +2°C° 0.2 mm 1 mps 757 mmHg 90%
    16:00 +2°C° 0.2 mm 1 mps 757 mmHg 92%
    17:00 +1°C° 0 mm 1 mps 757 mmHg 93%
    18:00 +1°C° 0 mm 1 mps 757 mmHg 93%
    19:00 +1°C° 0 mm 1 mps 757 mmHg 94%
    20:00 +1°C° 0 mm 1 mps 757 mmHg 94%
    21:00 +1°C° 0 mm 1 mps 758 mmHg 94%
    22:00 0°C° 0 mm 1 mps 758 mmHg 94%
    23:00 0°C° 0 mm 1 mps 758 mmHg 94%

    13 December, Thursday

    Time Temperature Precipitation Wind Pressure Humidity
    00:00 0°C° 0 mm 1 mps 758 mmHg 94%
    01:00 0°C° 0 mm 1 mps 758 mmHg 94%
    02:00 0°C° 0 mm 1 mps 758 mmHg 94%
    03:00 0°C° 0 mm 1 mps 758 mmHg 93%
    04:00 0°C° 0 mm 1 mps 758 mmHg 93%
    05:00 0°C° 0 mm 1 mps 758 mmHg 94%
    06:00 0°C° 0 mm 1 mps 758 mmHg 94%
    07:00 0°C° 0 mm 1 mps 758 mmHg 94%
    08:00 0°C° 0 mm 1 mps 758 mmHg 93%
    09:00 -1°C° 0 mm 2 mps 758 mmHg 92%
    10:00 -1°C° 0 mm 2 mps 758 mmHg 91%
    11:00 -1°C° 0 mm 2 mps 758 mmHg 89%
    12:00 -1°C° 0 mm 2 mps 757 mmHg 87%
    13:00 +1°C° 0 mm 2 mps 757 mmHg 85%
    14:00 +2°C° 0 mm 1 mps 757 mmHg 86%
    15:00 +1°C° 0 mm 1 mps 757 mmHg 87%
    16:00 +1°C° 0 mm 1 mps 756 mmHg 88%
    17:00 +1°C° 0 mm 1 mps 756 mmHg 88%
    18:00 -1°C° 0 mm 2 mps 756 mmHg 89%
    19:00 -1°C° 0 mm 2 mps 756 mmHg 89%
    20:00 -1°C° 0 mm 2 mps 756 mmHg 89%
    21:00 +1°C° 0 mm 1 mps 756 mmHg 89%
    22:00 +1°C° 0 mm 1 mps 756 mmHg 89%
    23:00 +1°C° 0 mm 1 mps 756 mmHg 90%

    14 December, Friday

    Time Temperature Precipitation Wind Pressure Humidity
    00:00 -2°C° 0 mm 2 mps 756 mmHg 91%
    01:00 -2°C° 0 mm 2 mps 756 mmHg 91%
    02:00 -2°C° 0 mm 2 mps 756 mmHg 92%
    03:00 -2°C° 0 mm 2 mps 756 mmHg 92%
    04:00 -2°C° 0 mm 2 mps 756 mmHg 93%
    05:00 -2°C° 0 mm 2 mps 756 mmHg 93%
    06:00 -2°C° 0 mm 2 mps 756 mmHg 93%
    07:00 -2°C° 0 mm 2 mps 756 mmHg 92%
    08:00 -2°C° 0 mm 2 mps 756 mmHg 91%
    09:00 -2°C° 0 mm 2 mps 757 mmHg 89%
    10:00 -2°C° 0 mm 3 mps 757 mmHg 87%
    11:00 -1°C° 0 mm 3 mps 757 mmHg 85%
    12:00 -1°C° 0 mm 3 mps 757 mmHg 83%
    13:00 -1°C° 0 mm 3 mps 757 mmHg 80%
    14:00 -1°C° 0 mm 2 mps 757 mmHg 83%
    15:00 -2°C° 0 mm 2 mps 757 mmHg 86%
    16:00 -3°C° 0 mm 2 mps 757 mmHg 89%
    17:00 -3°C° 0 mm 2 mps 757 mmHg 90%
    18:00 -3°C° 0 mm 2 mps 757 mmHg 91%
    19:00 -3°C° 0 mm 2 mps 757 mmHg 92%
    20:00 -3°C° 0 mm 2 mps 757 mmHg 92%
    21:00 -3°C° 0 mm 2 mps 757 mmHg 92%
    22:00 -2°C° 0 mm 2 mps 757 mmHg 92%
    23:00 -2°C° 0.1 mm 2 mps 757 mmHg 92%

    15 December, Saturday

    Time Temperature Precipitation Wind Pressure Humidity
    00:00 -2°C° 0.1 mm 2 mps 757 mmHg 92%
    01:00 -2°C° 0.1 mm 2 mps 757 mmHg 91%
    02:00 -2°C° 0.1 mm 2 mps 757 mmHg 92%
    03:00 -2°C° 0.1 mm 2 mps 757 mmHg 92%
    04:00 -2°C° 0.1 mm 3 mps 757 mmHg 92%
    05:00 -2°C° 0 mm 3 mps 758 mmHg 92%
    06:00 -4°C° 0 mm 3 mps 758 mmHg 92%
    07:00 -4°C° 0 mm 3 mps 758 mmHg 92%
    08:00 -4°C° 0 mm 3 mps 758 mmHg 91%
    09:00 -2°C° 0 mm 3 mps 759 mmHg 89%
    10:00 -2°C° 0 mm 3 mps 759 mmHg 88%
    11:00 -2°C° 0 mm 3 mps 759 mmHg 86%
    12:00 -1°C° 0 mm 3 mps 759 mmHg 84%
    13:00 -1°C° 0 mm 3 mps 759 mmHg 82%
    14:00 -1°C° 0 mm 3 mps 759 mmHg 83%
    15:00 -2°C° 0 mm 3 mps 759 mmHg 83%
    16:00 -2°C° 0 mm 3 mps 759 mmHg 83%
    17:00 -2°C° 0 mm 3 mps 759 mmHg 84%
    18:00 -2°C° 0 mm 2 mps 759 mmHg 84%
    19:00 -2°C° 0 mm 2 mps 759 mmHg 85%
    20:00 -2°C° 0 mm 2 mps 759 mmHg 86%
    21:00 -2°C° 0 mm 2 mps 759 mmHg 88%
    22:00 -2°C° 0 mm 2 mps 759 mmHg 89%
    23:00 -3°C° 0 mm 2 mps 759 mmHg 90%
    Show more